sat.trackr.live / text

‹ back to catalog

HYLAS 4

NORAD 43272 · 2018-033B

PAYLOAD ACTIVE UNKNOWN

§ Identity

Operator
Country
UK
Launch date
2018-04-05
Launch site
FRGUI
Launch vehicle
Mass (kg)
RCS (m²)

Purposes: comms

External: N2YO · Heavens-Above · Gunter

§ Orbital elements

Epoch: 2026-05-25T03:34:47.012736Z

Period
1,436.07 min
Inclination
0.0431°
Eccentricity
0.0001194
Mean motion
1.00273639 rev/d
Perigee alt
35,781.0 km
Apogee alt
35,791.1 km
Semi-major
42,164.2 km
B*
0.0000e+0
RAAN
107.8993°
Arg perigee
327.2450°
Mean anomaly
187.7669°
Rev number
2,983

§ Raw data

HYLAS 41 43272U 18033B   26145.14915524 -.00000236  00000+0  00000+0 0  99922 43272   0.0431 107.8993 0001194 327.2450 187.7669  1.00273639 29830

JSON: /api/v1/satellites/43272 · /tle

For live sub-satellite position, see the globe view (requires WebGL).

§ Visibility from observer

Set your observer location to see the next 7 days of passes ≥ 10°. The values pass through the URL so the page stays shareable.

No JS? Fill the form by hand. The geolocation button needs JavaScript.